Regional Weather Roundup
Issued by NWS Kansas City/Pleasant Hill, MO

Home | Current Version | Previous Version | Text Only | Print | Product List | Glossary On
Versions: 1 2 3 4 5 6 7 8 9 10 11 12 13 14 15 16 17 18 19 20 21 22 23 24 25 26 27 28 29 30 31 32 33 34 35 36 37 38 39 40 41 42 43 44 45 46 47 48 49 50
000
ASUS43 KEAX 281611
RWREAX

WEATHER ROUNDUP FOR EASTERN KANSAS AND NORTHWEST MISSOURI
NATIONAL WEATHER SERVICE KANSAS CITY/PLEASANT HILL MO
1100 AM CDT THU AUG 28 2014

KSZ040-057-103>105-MOZ028-029-037-043-281700-
...KANSAS CITY METROPOLITAN AREA...

CITY           SKY/WX    TMP DP  RH WIND       PRES   REMARKS
K.C. INTL      PTSUNNY   83  71  67 SW5       29.99S
K.C. DOWNTOWN  MOSUNNY   86  70  58 VRB7      29.97S HX  90
LEES SUMMIT    PTSUNNY   81  70  69 SW7       30.00S
OLATHE - IXD   SUNNY     88  70  55 SW14      29.99S HX  93
OLATHE - OJC   SUNNY     84  71  65 SW6       29.99S
LAWRENCE       MOSUNNY   91  70  49 SW9       29.97S HX  96

$$

MOZ001>008-011>017-020>025-030>033-038>040-044>046-053-054-281700-
...NORTHERN AND CENTRAL MISSOURI...

CITY           SKY/WX    TMP DP  RH WIND       PRES   REMARKS
ST. JOSEPH     PTSUNNY   80  73  79 CALM      29.98S
MOSBY          DRIZZLE   77  73  88 SE3       29.98S
WHITEMAN AFB   MOSUNNY   83  73  71 SW8       30.00S
CLINTON        SUNNY     84  73  70 S6        30.01S HX  91
SEDALIA        MOSUNNY   87  72  60 S9        30.02R HX  93
WARSAW         NOT AVBL
MARSHALL       PTSUNNY   82  75  78 S6        30.01S
CHILLICOTHE      N/A     76  71  85 E3        30.01R
MOBERLY        MOSUNNY   84  70  61 SE10      30.02F
KIRKSVILLE     PTSUNNY   78  72  81 SE9       30.02F

$$

MOZ041-047>049-056>058-063>065-088>090-097-281700-
...EASTERN AND SOUTHERN MISSOURI...

CITY           SKY/WX    TMP DP  RH WIND       PRES   REMARKS
ST. LOUIS INTL MOSUNNY   84  71  65 SE8       30.05S
SPIRIT OF STL  MOSUNNY   84  72  67 CALM      30.03S
COLUMBIA       SUNNY     88  70  55 S12       30.03S HX  93
JEFFERSON CITY SUNNY     86  71  60 VRB7      30.02S HX  91
MEXICO         SUNNY     86  77  74 S8        30.03S HX  97
HANNIBAL       PTSUNNY   84  70  61 S6        30.04S
ROLLA          SUNNY     86  68  54 S13       30.04S
LEBANON        SUNNY     86  66  51 SW13      30.05S
OSAGE BEACH    SUNNY     88  70  55 S8        30.03S HX  92
SPRINGFIELD    MOSUNNY   85  67  54 S14       30.04S
BRANSON        MOSUNNY   90  66  45 S6        30.06F HX  92
NEVADA         SUNNY     86  68  54 SW8       30.01F
JOPLIN         MOSUNNY   87  66  49 SW12      30.02S
WEST PLAINS    MOSUNNY   84  66  54 S10       30.08S

$$

IAZ060-094-KSZ022-034>040-054-083-096-NEZ052-066-093-281700-
...KANSAS...SOUTHEAST NEBRASKA AND IOWA...

CITY           SKY/WX    TMP DP  RH WIND       PRES   REMARKS
TOPEKA         SUNNY     87  70  56 SW7       29.96F HX  92
MANHATTAN      CLOUDY    76  71  85 E5        29.95F
EMPORIA        MOSUNNY   86  67  52 S13       29.98S
CHANUTE        SUNNY     86  66  51 S12       29.99F
WICHITA        LGT RAIN  80  65  59 S8        29.96F
OMAHA          CLOUDY    75  70  84 SE17      29.94S
LINCOLN        PTSUNNY   75  70  84 S16       29.91R
FALLS CITY     CLOUDY    75  70  84 SE3       29.97F
LAMONI         CLOUDY    72  70  93 CALM      30.02R
DES MOINES     LGT RAIN  69  67  93 SE9       30.02S FOG

$$




USA.gov is the U.S. government's official web portal to all federal, state and local government web resources and services.